Location: Lango�lan
(48.1202°N, 3.2340°W)
Time: 05:41:25
(UTC+00:00)

ATLAS 3B R/B - Pass Details

Date: 23 October 2019
Orbit: 1029 x 1166 km, 63.8° (Epoch: 10 November)

Event Time Altitude Azimuth Distance (km) Brightness Sun altitude
Exits shadow 03:06:15 45° 110° (ESE) 1,401 3.4 -36.2°
Drops below altitude 10° 03:10:56 10° 128° (SE) 2,893 5.2 -35.5°
Sets 03:13:38 0° 132° (SE) 3,865 5.9 -35.1°
